www.pogodaiklimat.ru

Погода и климат >> Архив погоды >> Индонезия >> Медан Полония


ПОГОДА в Медан Полония

  • Прогноз погоды в Медан Полония
  • Монитор погоды в Медан Полония

АРХИВ ПОГОДЫ в Медан Полония

Время (UTC), дата Ветер
(напр.,м/с)
 
Видим.   Явления Облачность Т
(С)
Тd
(С)
f
(%)
Тe
(С)
Тes
(С)
Комфортность P
(гПа)
Po
(гПа)
Тmin
(С)
Tmax
(С)
R
(мм)
R24
(мм)
S
(см)
03 9.09 З 3 7000 м {дождь} 10/5 500 м
[Sc Ac As Cs]
+25.7 +24.3 92 +36 +39 очень
душно
1012.6 1011.7 0.0
06 9.09 СЗ 2 9000 м {дождь} 10/5 500 м
[Sc Ac As Cs]
+28.6 +24.8 80 +41 +47 опасность
перегрева
1010.2 1009.2 0.0
09 9.09 СВ 3 9000 м 9/4 500 м
[Sc Ac As Cs]
+28.3 +24.8 81 +40 +43 очень
душно
1008.6 1007.6
12 9.09 В 2 9000 м 8/3 500 м
[Cu med, cong Ac lent Cs]
+26.0 +24.6 92 +37 +37 очень
душно
1009.5 1008.6 +29.0
15 9.09 В 1 6000 м 8/4 500 м
[Cu med, cong Ac trans Cs]
+26.9 +25.1 90 +39 +39 очень
душно
1011.0 1010.1
18 9.09 штиль 0 3000 м дымка 8/4 500 м
[Sc Ac As Cs]
+25.4 +24.7 96 +36 +36 очень
душно
1010.7 1009.7
21 9.09 ЮЗ 2 2000 м дымка 8/4 540 м
[Sc Ac As Cs]
+24.7 +24.4 98 +34 +34 очень
душно
1010.0 1009.0
00 10.09 ЮВ 2 2000 м дымка 9/4 500 м
[Sc Ac As Cs]
+24.2 +23.6 96 +33 +33 очень
душно
1011.6 1010.5 +23.6 0.0
03 10.09 Ю 2 7000 м 9/5 480 м
[Sc Ac As Cs]
+27.0 +24.4 86 +38 +42 очень
душно
1012.3 1011.4
06 10.09 СВ 5 10 км 9/4 500 м
[Cu med, cong Ac trans Ci fib]
+30.7 +25.8 75 +46 +49 опасность
перегрева
1010.2 1009.1
09 10.09 СВ 5 8000 м 9/4 540 м
[Cu med, cong Ac trans Ci fib]
+30.8 +26.1 76 +46 +48 опасность
перегрева
1008.0 1007.1
12 10.09 З 9 7000 м 9/5 500 м
[Cb cap Ac As Cs]
+27.8 +21.4 68 +35 +35 очень
душно
1010.1 1009.2 +31.9
15 10.09 ЮЗ 2 5000 м мгла {дождь} 9/4 500 м
[Cu med, cong Ac As Cs]
+25.4 +24.0 92 +35 +35 очень
душно
1012.4 1011.4 2
18 10.09 З 2 2000 м слаб. дождь 9/4 500 м
[Cb cap Ac As Cs]
+24.4 +23.8 96 +33 +33 очень
душно
1012.5 1011.5 10
21 10.09 ЮЗ 2 5000 м дымка {дождь} 9/4 500 м
[Cb cap Ac As Cs]
+23.7 +23.3 98 +32 +32 очень
душно
1011.2 1010.1 0.0
00 11.09 В 2 3000 м дымка {дождь} 10/5 500 м
[Cu med, cong Ac As Cs]
+23.6 +23.5 99 +32 +32 очень
душно
1012.3 1011.2 +23.2 12
03 11.09 штиль 0 10 км 9/4 500 м
[Cu med, cong Ac As Cs]
+29.2 +23.3 71 +40 +46 очень
душно
1013.7 1012.7
06 11.09 В 5 7000 м 9/3 500 м
[Cu med, cong Ac As Cs]
+31.0 +25.7 73 +46 +51 опасность
перегрева
1011.2 1010.1
09 11.09 СВ 5 4000 м дым {туман} 8/4 500 м
[Cu med, cong Ac As Cs]
+30.7 +26.1 77 +46 +48 опасность
перегрева
1009.2 1008.1
12 11.09 СЗ 1 2000 м дым {туман} 10/5 500 м
[Cb cap As op]
+28.1 +25.6 86 +41 +41 опасность
перегрева
1010.4 1009.5 +31.8
15 11.09 ЮЗ 3 6000 м 9/5 500 м
[Sc Ac As Cs]
+26.4 +23.4 84 +36 +36 очень
душно
1012.9 1011.9
18 11.09 ЮЗ 2 6000 м 9/4 500 м
[Sc Ac As Cs]
+25.6 +23.1 86 +34 +34 очень
душно
1012.7 1011.7
21 11.09 ЮЗ 4 6000 м {гроза} 9/5 500 м
[Cb cap Ac As Cs]
+24.4 +22.6 90 +32 +32 очень
душно
1011.7 1010.7
00 12.09 Ю 3 7000 м {гроза} 9/3 500 м
[Sc Ac As Cs]
+23.4 +21.8 91 +32 +32 очень
душно
1013.1 1012.2 +23.0
03 12.09 ЮЗ 2 8000 м 9/4 540 м
[Sc Ac As Cs]
+29.4 +24.0 73 +41 +46 опасность
перегрева
1014.9 1013.9
06 12.09 СВ 3 4000 м дым {туман} 9/4 500 м
[Sc Ac As Cs]
+30.6 +25.0 72 +44 +50 опасность
перегрева
1012.3 1011.2
09 12.09 С 3 5000 м дым {туман} 9/4 540 м
[Sc Ac As Cs]
+30.3 +25.3 75 +44 +46 опасность
перегрева
1009.5 1008.5
12 12.09 С 2 4000 м дым {туман} 9/4 540 м
[Sc Ac As Cs]
+27.4 +24.3 83 +38 +38 очень
душно
1010.6 1009.6 +31.3
15 12.09 СЗ 1 3000 м дым {туман} 8/4 500 м
[Sc Ac As Cs]
+26.5 +24.4 88 +37 +37 очень
душно
1012.7 1011.8
18 12.09 Ю 3 2500 м дым {туман} 8/4 500 м
[Sc Ac As Cs]
+25.9 +24.5 92 +36 +36 очень
душно
1012.3 1011.2
21 12.09 З 3 6000 м в посл. час гроза {дождь} 10/5 480 м
[Cb cap Ac As Cs]
+23.5 +22.5 94 +31 +31 очень
душно
1012.4 1011.3 1
00 13.09 ЮЗ 1 3000 м дымка {гроза, дождь} 10/4 500 м
[Sc Ac As Cs]
+24.4 +23.5 95 +33 +33 очень
душно
1012.5 1011.4 +23.0 1
03 13.09 З 3 8000 м {туман} 9/4 540 м
[Sc Ac As Cs]
+29.0 +24.5 77 +41 +46 опасность
перегрева
1013.6 1012.7
06 13.09 С 4 10 км {туман} 9/4 540 м
[Cu med, cong Ac As Cs]
+31.3 +25.9 73 +47 +52 опасность
перегрева
1011.8 1010.6
09 13.09 СЗ 6 10 км 9/4 600 м
[Cu med, cong Ac lent Cs]
+30.2 +25.2 75 +44 +45 опасность
перегрева
1009.7 1008.6
12 13.09 ЮЗ 2 2000 м дождь 10/6 480 м
[Cb cap Ac As Cs]
+24.0 +23.6 98 +33 +33 очень
душно
1011.9 1010.8 +31.3 2
15 13.09 ЮЗ 5 4000 м слаб. дождь 9/5 500 м
[Sc Ac As Cs]
+23.6 +23.3 98 +32 +32 очень
душно
1013.2 1012.2 1
18 13.09 Ю 3 6000 м {дождь} 9/5 500 м
[Sc Ac As Cs]
+23.4 +23.1 98 +33 +33 очень
душно
1011.3 1010.2 0.0
21 13.09 Ю 2 4000 м мгла 9/4 500 м
[Sc Ac As Cs]
+23.0 +22.9 99 +32 +32 очень
душно
1010.3 1009.3
00 14.09 ЮВ 3 5000 м мгла 9/4 500 м
[Sc Ac As Cs]
+23.4 +22.4 94 +32 +32 очень
душно
1011.4 1010.4 +22.4 3
03 14.09 СЗ 3 10 км 8/3 540 м
[Sc As trans Cs]
+29.4 +23.2 69 +39 +45 очень
душно
1012.9 1011.9
06 14.09 С 3 10 км 9/4 500 м
[Cu med, cong Ac As Cs]
+30.9 +22.5 61 +40 +47 очень
душно
1010.6 1009.5
09 14.09 СВ 4 10 км 9/4 500 м
[Cu med, cong Ac As Cs]
+31.1 +23.2 63 +42 +44 опасность
перегрева
1008.1 1007.1
12 14.09 ЮВ 2 10 км 9/3 540 м
[Sc Ac As Cs]
+27.6 +24.6 84 +39 +39 очень
душно
1009.5 1008.5 +31.9
15 14.09 ЮЗ 1 9000 м 9/4 540 м
[Sc Ac As Cs]
+25.8 +23.2 86 +35 +35 очень
душно
1011.7 1010.7
18 14.09 Ю 2 6000 м 9/4 540 м
[Sc Ac As Cs]
+25.9 +25.5 98 +38 +38 очень
душно
1010.4 1009.4
21 14.09 ЮЗ 1 8000 м 9/4 500 м
[Sc Ac As Cs]
+25.2 +24.2 94 +35 +35 очень
душно
1009.1 1008.1
00 15.09 Ю 2 5000 м мгла 9/4 500 м
[Sc Ac As Cs]
+25.0 +24.0 94 +34 +34 очень
душно
1009.9 1008.9 +23.4
03 15.09 В 2 9000 м 9/4 500 м
[Sc Ac As Cs]
+29.4 +23.7 71 +40 +46 очень
душно
1011.5 1010.5
06 15.09 С 4 10 км 10/4 500 м
[Sc Ac As Cs]
+30.0 +24.6 73 +43 +47 опасность
перегрева
1009.0 1007.9
09 15.09 СВ 5 10 км 10/5 500 м
[Cu med, cong Ac As Cs]
+29.6 +25.4 78 +43 +44 опасность
перегрева
1006.8 1005.8
12 15.09 штиль 0 6000 м гроза, ливневой дождь 10/6 480 м
[Cb cap Ac As Cs]
+23.6 +22.3 92 +31 +31 очень
душно
1009.1 1008.2 +30.7 5
15 15.09 ЮВ 2 5000 м в посл. час дождь {гроза} 10/4 540 м
[Sc Ac As Cs]
+23.3 +23.2 99 +33 +33 очень
душно
1010.2 1009.1 0.7
18 15.09 Ю 1 2000 м дымка {гроза, дождь} 10/4 540 м
[Sc Ac As Cs]
+23.4 +23.4 100 +33 +33 очень
душно
1009.5 1008.4 0.7
21 15.09 Ю 1 4000 м дымка 10/5 540 м
[Sc Ac As Cs]
+24.0 +24.0 100 +33 +33 очень
душно
1008.5 1007.5

 

Местоположение метеостанции Медан Полония (Индонезия): широта 3.57 долгота 98.68 высота над уровнем моря 25 м.

В архиве по умолчанию представлена погода в Медан Полония за последнюю неделю. Архивные данные за месяц целиком и за предыдущие месяцы, начиная с января 2011 года, Вы можете получить, выбрав интересующий диапазон дат из раскрывающегося списка и нажав кнопку "Ввод!".


*Определитесь, кто Вы:
робот инопланетянин человек

Внимание! Время в таблицах - всемирное. Для получения местного времени необходимо прибавить поправку, которая равна 7 ч.

Смотрите также архив погоды в соседних городах и на ближайших метеорологических станциях:

Погода в Белаване (Индонезия) (26 км)
Погода в Сиболге (Индонезия) (226 км)
Погода в Ситаване (Малайзия) (236 км)
Погода в Лхоксёмаве (Индонезия) (247 км)
Погода в Гунунгситоли (Индонезия) (258 км)
Погода в Пенанге (Малайзия) (260 км)
Погода на Авиабазе Баттерворт (Малайзия) (283 км)
Погода в Ипохе (Малайзия) (291 км)
Погода в Меулабохе (Индонезия) (294 км)
Погода на Нагорье Кэмерон (Малайзия) (315 км)

Пояснения к столбцам:

Ветер - указаны скорость ветра в м/с - средняя за 10 мин, порывы в срок и между сроками (в фигурных скобках) и направление, откуда дует ветер: С - северный, СВ - северо-восточный, В - восточный, ЮВ - юго-восточный, Ю - южный, ЮЗ - юго-западный, З - западный, СЗ - северо-западный.
Видимость - горизонтальная дальность видимости в метрах или километрах. При видимости от 1 до 10 км при отсутствии осадков обычно наблюдается дымка, при ухудшении видимости до 1 км и менее - туман. В сухую погоду видимость может ухудшаться дымом, пылью или мглою.
Явления - указаны атмосферные явления, наблюдавшиеся в срок или в последний час перед сроком; фигурными скобками обозначены явления, наблюдавшиеся между сроками (за 1-3 часа до срока); квадратными скобками обозначены град или гололедные отложения с указанием их диаметра в мм.
Облачность - указаны через наклонную черту общая и нижняя облачность в баллах и высота нижней границы облаков в метрах; квадратными скобками обозначены формы облаков: Ci - перистые, Cs - перисто-слоистые, Cc - перисто-кучевые, Ac - высококучевые, As - высокослоистые, Sc - слоисто-кучевые, Ns - слоисто-дождевые, Cu - кучевые, Cb - кучево-дождевые. Подробнее классификацию облаков см. в Атласе облаков (PDF).
T - Температура воздуха - температура, измеренная на высоте 2 м над землей.
Td - Температура точки росы - температура, при понижении до которой содержащийся в воздухе водяной пар достигнет насыщения.
f - Относительная влажность воздуха - влажноcть воздуха, измеренная на высоте 2 м над землей.
Te - Эффективная температура - температура, которую ощущает одетый по сезону человек в тени. Характеристика душности погоды. При расчете учитывается влияние влажности воздуха и скорости ветра на теплоощущения человека.
Tes - Эффективная температура на солнце - температура, которую ощущает человек, с поправкой на солнечный нагрев. Характеристика знойности погоды. Зависит от высоты солнца над горизонтом, облачности и скорости ветра. Ночью, в пасмурную погоду, а также при ветре 12 м/с и более поправка равна нулю.
P - Атмосферное давление - приведенное к уровню моря атмосферное давление.
Po - Атмосферное давление - измеренное на уровне метеостанции атмосферное давление.
Tmin - Минимальная температура - минимум температуры воздуха на высоте 2 м над землей.
Tmax - Максимальная температура - максимум температуры воздуха на высоте 2 м над землей.
R - Количество осадков - Количество выпавших осадков за период времени, мм. При наведении курсора мыши на число - период времени, за который выпало указанное количество осадков.
R24 - Количество осадков - Количество выпавших осадков за 24 часа, мм.
S - Снежный покров - Высота снежного покрова, см. При наведении курсора мыши на число - состояние снежного покрова и степень покрытия местности в баллах.